Location: Casaglia
(44.0333°N, 11.5167°E)
Time: 03:06:05
(UTC+00:00)

Cosmos 1606 - Pass Details

Date: 07 June 2020
Orbit: 504 x 527 km, 82.5° (Epoch: 11 July)

Event Time Altitude Azimuth Distance (km) Brightness Sun altitude
Rises 02:49:56 0° 346° (NNW) 2,617 6.7 -6.8°
Reaches altitude 10° 02:52:06 10° 340° (NNW) 1,728 5.6 -6.5°
Maximum altitude 02:55:45 48° 266° (W) 676 3.0 -6.0°
Drops below altitude 10° 02:59:23 10° 192° (SSW) 1,722 4.9 -5.5°
Sets 03:01:32 0° 186° (S) 2,606 5.8 -5.2°
